SCP
0 0 0 0 0 0 0 0 0 0 0 0 0 0 0 0 0 0 0 0 0 0 0 0 0 0 0 0 0 0 0 0 0 0 0 0 0 0 0 0 0 0 0
0 0 0 0 0 0 0 0 0 0 0 0 0 0 0 0 0 0 0 0 0 0 0 0 0 0 0 0 0 0 0 0 0 0 0 0 0 0 0 0 0 0 0
0 0 0 0 0 0 0 0 0 0 0 0 0 0 0 0 0 0 0 0 0 0 0 0 0 0 0 0 0 0 0 0 0 0 0 0 0 0 0 0 0 -0 0
0 0 0 0 0 0 0 0 0 0 0 0 0 0 0 0 0 0 0 0 0 0 0 0 0 0 0 0 0 0 0 0 0 0 0 0 0 0 -0 -0 -0 -0 -0
0 0 0 0 0 0 0 0 0 0 0 0 0 0 0 0 0 0 0 0 0 0 0 0 0 0 0 0 0 0 0 0 0 0 0 0 0 -0 -0 -0 -0 -0 -0
0 0 0 0 0 0 0 0 0 0 0 0 0 0 0 0 0 0 0 0 0 0 0 0 0 0 0 0 0 0 0 0 0 0 0 0 0 0 0 0 0 -0 -0
0 0 0 0 0 0 0 0 0 0 0 0 0 0 0 0 0 0 0 0 0 0 0 0 0 0 0 0 0 0 0 0 0 0 0 0 0 0 0 0 0 0 0
0 0 0 0 0 0 0 0 0 0 0 0 0 0 0 0 0 0 0 0 0 0 0 0 0 0 0 0 0 0 0 0 0 0 0 0 0 0 0 0 0 0 0
0 0 0 0 0 0 0 0 0 0 0 0 0 0 0 0 0 0 0 0 0 0 0 0 0 0 0 0 0 0 0 0 0 0 0 0 0 0 0 0 0 0 0
0 0 0 0 0 0 0 0 0 0 0 0 0 0 0 0 0 0 0 0 0 0 0 0 0 0 0 0 0 0 0 0 0 0 0 0 0 0 0 0 0 0 0
0 0 0 0 0 0 0 0 0 0 0 0 0 0 0 0 0 0 0 0 0 0 0 0 0 0 0 0 0 0 0 0 0 0 0 0 0 0 0 0 0 0 0
0 0 0 0 0 0 0 0 0 0 0 0 0 0 0 0 0 0 0 0 0 0 0 0 0 0 0 0 0 0 0 0 0 0 0 0 0 0 0 0 0 0 0
0 0 0 0 0 0 0 0 0 0 0 0 0 0 0 0 0 0 0 0 0 0 0 0 0 0 0 0 0 0 0 0 0 0 0 0 0 0 0 0 0 0 0
0 0 0 0 0 0 0 0 0 0 0 0 0 0 0 0 0 0 0 0 0 0 0 0 0 0 0 0 0 0 0 0 0 0 0 0 0 0 0 0 0 0 0
0 0 0 0 0 0 0 0 0 0 0 0 0 0 0 0 0 0 0 0 0 0 0 0 0 0 0 0 0 0 0 0 0 0 0 0 0 0 0 0 0 0 0
0 0 0 0 0 0 0 0 0 0 0 0 0 0 0 0 0 0 0 0 0 0 0 0 0 0 0 0 0 0 0 0 0 0 0 0 0 0 0 0 0 0 0
0 0 0 0 0 0 0 0 0 0 0 0 0 0 0 0 0 0 0 0 0 0 0 0 0 0 0 0 0 0 0 0 0 0 0 0 0 0 0 0 0 0 0
0 0 0 0 0 0 0 0 0 0 0 0 0 0 0 0 0 0 0 0 0 0 0 0 0 0 0 0 0 0 0 0 0 0 0 0 0 0 0 0 0 0 0
0 0 0 0 0 0 0 0 0 0 0 0 0 0 0 0 0 0 0 0 0 0 0 0 0 0 0 0 0 0 0 0 0 0 0 0 0 0 0 0 0 0 0
0 0 0 0 0 0 0 0 0 0 0 0 0 0 0 0 0 0 0 0 0 0 0 0 0 0 0 0 0 0 0 0 0 0 0 0 0 0 0 0 0 0 0
0 0 0 0 0 0 0 0 0 0 0 0 0 0 0 0 0 0 0 0 0 0 0 0 0 0 0 0 0 0 0 0 0 0 0 0 0 0 0 0 0 0 0
0 0 0 0 0 0 0 0 0 0 0 0 0 0 0 0 0 0 0 0 0 0 0 0 0 0 0 0 0 0 0 0 0 0 0 0 0 0 0 0 0 0 0
0 0 0 0 0 0 0 0 0 0 0 0 0 0 0 0 0 0 0 0 0 0 0 0 0 0 0 0 0 0 0 0 0 0 0 0 0 0 0 0 0 0 0
0 0 0 0 0 0 0 0 0 0 0 0 0 0 0 0 0 0 0 0 0 0 0 0 0 0 0 0 0 0 0 0 0 0 0 0 0 0 0 0 0 0 0
0 0 0 0 0 0 0 0 0 0 0 0 0 0 0 0 0 0 0 0 0 0 0 0 0 0 0 0 0 0 0 0 0 0 0 0 0 0 0 0 0 0 0
0 0 0 0 0 0 0 0 0 0 0 0 0 0 0 0 0 0 0 0 0 0 0 0 0 0 0 0 0 0 0 0 0 0 0 0 0 0 0 0 0 0 0
Wind_Speed_500mb
36 34 32 31 31 32 33 39 41 41 39 37 31 25 20 18 17 17 17 19 23 26 29 30 33 37 37 39 37 39 44 47 56 70 70 75 75 72 74 76 78 83 87
37 34 32 31 32 33 34 39 37 36 33 29 27 25 24 23 23 22 22 21 23 24 24 26 27 26 29 30 31 32 35 39 49 60 66 65 68 71 72 70 68 67 70
36 35 36 36 37 35 37 38 39 37 35 32 30 27 22 18 16 17 18 19 18 18 18 20 23 25 28 29 31 33 36 39 42 52 63 67 71 71 74 72 77 78 76
39 39 39 41 41 40 39 38 36 34 32 28 24 21 19 17 16 15 14 13 13 13 15 19 23 24 26 29 32 36 38 42 45 51 58 67 71 76 78 85 92 85 89
45 45 43 42 41 41 40 37 35 31 28 26 24 21 19 18 14 12 13 14 15 15 16 19 22 25 31 33 34 37 41 45 48 53 59 65 72 79 81 85 92 100 103
49 48 47 47 46 44 41 37 33 30 29 28 25 20 18 17 15 17 18 16 14 15 15 16 19 21 25 29 33 39 43 46 49 53 58 62 67 71 77 81 88 97 104
53 52 51 50 47 44 40 38 36 33 29 25 22 22 21 16 18 20 17 14 14 13 13 14 18 22 26 29 34 39 42 44 46 47 53 56 64 67 73 81 82 87 95
57 57 55 54 51 49 46 42 39 35 30 26 22 18 17 22 25 18 18 16 14 14 15 19 24 27 31 37 43 46 46 49 48 48 49 54 56 60 59 64 72 84 89
61 61 61 59 56 52 48 44 41 38 34 29 26 23 22 20 16 18 16 15 15 18 21 24 27 32 37 42 44 47 49 49 51 51 52 54 55 55 54 58 64 71 84
68 65 61 57 53 50 48 45 41 36 30 25 25 24 21 19 18 21 16 17 18 19 23 26 30 33 37 40 44 47 49 50 54 56 56 54 54 53 50 48 53 65 77
68 65 62 58 54 50 45 40 34 30 27 26 24 22 19 19 22 21 20 17 19 21 23 26 29 33 38 41 43 44 44 48 53 57 59 58 56 53 51 48 48 56 70
67 64 61 57 54 48 43 39 35 31 25 21 24 23 22 21 20 18 19 21 24 24 24 28 32 36 38 40 43 45 48 51 54 57 59 60 60 60 60 57 54 52 53
65 64 60 56 52 46 42 36 31 25 24 28 32 27 26 22 20 18 17 19 23 25 28 30 33 36 40 42 43 46 47 49 52 57 61 62 60 61 62 63 63 63 67
62 61 59 54 49 42 36 35 35 34 39 36 33 31 25 21 19 17 15 18 22 27 27 29 32 36 39 41 41 41 44 46 50 54 59 61 63 65 66 64 68 69 74
61 59 56 51 45 45 46 37 35 38 39 37 32 26 22 18 16 17 18 20 25 29 27 30 32 36 39 41 42 44 46 48 50 53 57 60 61 64 65 66 68 72 75
61 61 56 57 57 49 44 43 49 46 39 33 27 23 19 18 18 18 19 22 29 29 29 31 35 39 42 44 46 48 48 50 51 54 57 58 61 65 68 68 67 70 77
60 59 58 52 50 43 47 48 44 36 32 29 23 18 17 18 19 21 22 26 26 31 32 33 37 41 44 45 47 49 52 50 52 54 57 61 64 67 70 72 71 73 78
57 52 50 44 43 45 44 41 38 34 29 25 24 22 20 19 22 24 26 28 28 33 35 36 37 40 43 46 48 51 52 53 54 57 60 61 62 68 73 73 70 76 81
47 42 42 43 43 41 39 38 34 31 29 28 24 22 22 24 25 27 31 32 33 33 37 37 39 41 44 47 50 52 54 56 57 59 61 64 63 68 74 73 74 75 81
41 42 41 41 40 40 39 37 34 32 30 28 26 29 29 28 27 29 32 34 36 37 38 40 39 42 45 48 51 55 58 58 59 60 62 66 66 68 74 80 79 80 85
39 36 36 39 40 39 37 35 33 29 27 27 27 30 31 31 28 29 29 31 34 37 40 43 43 44 45 49 53 57 60 60 59 62 64 67 68 73 72 77 78 78 83
38 38 41 40 40 37 35 33 31 30 30 29 28 29 32 32 31 31 31 32 34 38 41 45 44 45 46 49 54 58 62 63 61 63 65 66 69 71 73 76 81 82 83
44 43 41 39 37 37 35 33 33 32 30 28 29 29 31 31 32 34 33 35 37 37 40 44 47 45 46 49 53 58 63 64 64 65 68 67 68 68 70 75 79 83 84
43 41 40 39 39 37 35 35 34 33 32 30 31 31 31 32 32 35 37 38 40 39 40 43 45 46 48 51 55 58 61 64 66 65 63 67 68 65 67 72 75 81 87
42 43 43 40 39 37 36 37 36 36 34 33 33 33 33 34 35 36 37 39 41 42 42 43 45 46 49 53 57 60 64 65 65 64 63 64 66 62 62 69 74 83 85
44 45 42 41 40 38 38 38 38 37 36 35 36 36 36 36 36 37 39 41 44 45 46 47 48 50 53 56 59 63 65 64 62 58 55 60 64 62 62 68 72 79 84
Wind_Direction_500mb
236 236 234 230 224 222 222 232 237 237 234 232 235 237 232 227 231 237 249 260 267 269 271 274 277 276 276 278 277 281 280 280 282 284 288 289 293 293 292 291 291 291 289
240 237 230 225 220 216 215 223 222 221 220 214 206 206 213 221 230 240 249 256 264 270 274 275 280 283 288 293 299 303 305 304 302 303 303 305 307 309 311 309 304 300 299
237 232 227 221 216 215 214 209 203 199 197 201 207 214 221 231 244 254 262 266 270 275 283 289 294 300 303 303 306 308 308 308 306 305 307 310 309 312 308 306 306 304 303
232 227 223 217 211 205 201 197 196 199 205 211 218 223 228 233 239 245 253 261 272 283 293 294 294 300 302 306 308 306 305 305 306 306 306 307 310 311 311 310 304 304 301
226 222 217 211 206 203 202 202 205 208 213 221 228 227 229 237 244 255 267 273 275 280 284 291 299 303 307 314 316 315 317 316 317 316 314 314 316 316 318 317 312 309 307
225 221 215 210 207 206 207 208 212 216 219 220 224 227 237 241 247 259 266 269 277 284 292 304 310 313 316 320 320 323 324 327 325 322 319 320 319 317 317 317 316 315 317
223 219 216 213 213 212 211 213 213 211 213 216 226 238 243 254 277 278 280 288 296 301 307 310 311 316 321 323 322 323 324 326 326 325 322 323 320 322 319 317 314 310 305
221 219 216 214 212 211 210 209 207 204 204 210 221 234 253 272 276 275 281 289 296 307 316 319 320 324 324 325 325 325 325 329 328 325 320 319 318 321 317 314 311 308 305
221 219 216 214 212 210 208 206 205 206 212 222 234 236 237 253 257 266 279 291 298 310 318 320 321 322 322 320 321 322 326 325 322 323 325 323 324 323 322 314 312 311 311
218 217 215 214 213 211 209 208 209 214 218 215 218 222 237 249 265 275 278 286 296 305 309 310 315 319 320 320 322 324 323 323 322 323 325 326 324 321 319 314 311 304 305
215 213 212 211 210 209 208 209 210 208 209 215 224 231 233 243 254 265 278 284 294 306 310 311 314 315 317 323 326 327 325 323 327 326 325 326 326 323 319 315 310 307 307
212 212 211 208 207 206 206 208 209 209 206 220 229 229 232 238 252 270 281 292 302 307 314 315 319 321 324 328 329 326 326 327 325 324 325 328 329 328 325 321 314 309 304
208 207 206 204 204 204 204 201 206 208 220 232 235 232 236 239 250 259 274 294 305 312 317 321 320 325 326 327 326 326 327 327 329 329 328 328 326 323 321 322 320 319 317
206 205 203 202 201 200 200 208 221 221 223 221 224 224 226 234 247 264 291 306 307 308 318 320 320 324 324 322 323 328 333 335 332 329 326 325 324 323 323 326 324 324 321
203 202 199 197 197 209 215 211 215 220 223 221 219 222 231 242 257 277 295 299 302 308 316 314 315 318 321 324 329 332 334 334 333 332 328 323 320 318 321 326 327 326 323
200 197 195 208 214 211 204 209 216 217 217 218 221 226 235 248 262 279 289 293 298 302 308 313 320 321 323 325 327 329 331 332 332 330 329 327 322 319 319 323 325 325 323
197 201 210 209 207 207 208 209 212 212 217 221 225 234 247 260 270 277 281 286 299 304 307 314 317 319 320 321 324 325 327 329 329 329 330 330 327 323 321 321 324 323 323
205 210 211 209 207 208 208 209 211 213 219 226 232 238 251 261 269 279 283 289 289 298 302 305 308 310 313 318 320 320 322 326 328 327 328 327 326 325 324 322 322 322 324
207 205 206 207 207 207 210 210 211 214 219 228 239 248 257 266 271 275 279 285 289 292 295 302 308 311 314 316 316 318 320 323 322 322 322 322 324 324 324 323 320 321 322
206 209 208 206 206 207 209 212 213 215 220 228 239 251 258 262 265 270 276 280 286 293 299 304 307 309 312 314 316 316 315 316 316 316 318 319 321 321 323 324 322 320 321
204 206 213 216 213 212 212 215 218 222 230 238 244 256 265 269 269 270 274 284 292 297 301 302 307 311 313 314 313 311 311 312 314 313 313 316 318 319 323 323 323 322 322
217 219 217 215 216 216 218 223 227 231 235 239 244 254 263 272 279 283 287 290 291 294 297 300 305 310 312 312 311 310 310 311 312 310 309 311 313 316 320 320 321 323 326
217 216 215 216 218 221 225 229 236 241 245 250 252 253 259 267 275 282 286 288 289 292 295 299 303 308 310 311 311 311 311 312 310 308 308 307 310 314 317 318 320 324 328
217 216 217 219 223 228 232 237 242 247 251 253 256 260 265 271 277 282 286 288 291 294 296 298 302 307 310 311 312 313 311 309 307 306 304 303 307 310 311 315 321 326 326
218 220 221 224 229 234 239 244 247 250 253 257 262 268 273 277 280 283 287 291 293 295 298 301 304 307 309 311 314 313 312 309 306 305 301 298 299 303 309 317 322 323 324
221 224 226 229 234 239 244 247 250 252 257 262 267 273 277 280 283 287 289 292 294 296 299 301 304 309 311 313 314 313 313 308 303 301 294 295 300 305 310 315 317 321 323
Wind_Speed_850mb
36 34 32 31 31 32 33 39 41 41 39 37 31 25 20 18 17 17 17 19 23 26 29 30 33 37 37 39 37 39 44 47 56 70 70 75 75 72 74 76 78 83 87
37 34 32 31 32 33 34 39 37 36 33 29 27 25 24 23 23 22 22 21 23 24 24 26 27 26 29 30 31 32 35 39 49 60 66 65 68 71 72 70 68 67 70
36 35 36 36 37 35 37 38 39 37 35 32 30 27 22 18 16 17 18 19 18 18 18 20 23 25 28 29 31 33 36 39 42 52 63 67 71 71 74 72 77 78 76
39 39 39 41 41 40 39 38 36 34 32 28 24 21 19 17 16 15 14 13 13 13 15 19 23 24 26 29 32 36 38 42 45 51 58 67 71 76 78 85 92 85 89
45 45 43 42 41 41 40 37 35 31 28 26 24 21 19 18 14 12 13 14 15 15 16 19 22 25 31 33 34 37 41 45 48 53 59 65 72 79 81 85 92 100 103
49 48 47 47 46 44 41 37 33 30 29 28 25 20 18 17 15 17 18 16 14 15 15 16 19 21 25 29 33 39 43 46 49 53 58 62 67 71 77 81 88 97 104
53 52 51 50 47 44 40 38 36 33 29 25 22 22 21 16 18 20 17 14 14 13 13 14 18 22 26 29 34 39 42 44 46 47 53 56 64 67 73 81 82 87 95
57 57 55 54 51 49 46 42 39 35 30 26 22 18 17 22 25 18 18 16 14 14 15 19 24 27 31 37 43 46 46 49 48 48 49 54 56 60 59 64 72 84 89
61 61 61 59 56 52 48 44 41 38 34 29 26 23 22 20 16 18 16 15 15 18 21 24 27 32 37 42 44 47 49 49 51 51 52 54 55 55 54 58 64 71 84
68 65 61 57 53 50 48 45 41 36 30 25 25 24 21 19 18 21 16 17 18 19 23 26 30 33 37 40 44 47 49 50 54 56 56 54 54 53 50 48 53 65 77
68 65 62 58 54 50 45 40 34 30 27 26 24 22 19 19 22 21 20 17 19 21 23 26 29 33 38 41 43 44 44 48 53 57 59 58 56 53 51 48 48 56 70
67 64 61 57 54 48 43 39 35 31 25 21 24 23 22 21 20 18 19 21 24 24 24 28 32 36 38 40 43 45 48 51 54 57 59 60 60 60 60 57 54 52 53
65 64 60 56 52 46 42 36 31 25 24 28 32 27 26 22 20 18 17 19 23 25 28 30 33 36 40 42 43 46 47 49 52 57 61 62 60 61 62 63 63 63 67
62 61 59 54 49 42 36 35 35 34 39 36 33 31 25 21 19 17 15 18 22 27 27 29 32 36 39 41 41 41 44 46 50 54 59 61 63 65 66 64 68 69 74
61 59 56 51 45 45 46 37 35 38 39 37 32 26 22 18 16 17 18 20 25 29 27 30 32 36 39 41 42 44 46 48 50 53 57 60 61 64 65 66 68 72 75
61 61 56 57 57 49 44 43 49 46 39 33 27 23 19 18 18 18 19 22 29 29 29 31 35 39 42 44 46 48 48 50 51 54 57 58 61 65 68 68 67 70 77
60 59 58 52 50 43 47 48 44 36 32 29 23 18 17 18 19 21 22 26 26 31 32 33 37 41 44 45 47 49 52 50 52 54 57 61 64 67 70 72 71 73 78
57 52 50 44 43 45 44 41 38 34 29 25 24 22 20 19 22 24 26 28 28 33 35 36 37 40 43 46 48 51 52 53 54 57 60 61 62 68 73 73 70 76 81
47 42 42 43 43 41 39 38 34 31 29 28 24 22 22 24 25 27 31 32 33 33 37 37 39 41 44 47 50 52 54 56 57 59 61 64 63 68 74 73 74 75 81
41 42 41 41 40 40 39 37 34 32 30 28 26 29 29 28 27 29 32 34 36 37 38 40 39 42 45 48 51 55 58 58 59 60 62 66 66 68 74 80 79 80 85
39 36 36 39 40 39 37 35 33 29 27 27 27 30 31 31 28 29 29 31 34 37 40 43 43 44 45 49 53 57 60 60 59 62 64 67 68 73 72 77 78 78 83
38 38 41 40 40 37 35 33 31 30 30 29 28 29 32 32 31 31 31 32 34 38 41 45 44 45 46 49 54 58 62 63 61 63 65 66 69 71 73 76 81 82 83
44 43 41 39 37 37 35 33 33 32 30 28 29 29 31 31 32 34 33 35 37 37 40 44 47 45 46 49 53 58 63 64 64 65 68 67 68 68 70 75 79 83 84
43 41 40 39 39 37 35 35 34 33 32 30 31 31 31 32 32 35 37 38 40 39 40 43 45 46 48 51 55 58 61 64 66 65 63 67 68 65 67 72 75 81 87
42 43 43 40 39 37 36 37 36 36 34 33 33 33 33 34 35 36 37 39 41 42 42 43 45 46 49 53 57 60 64 65 65 64 63 64 66 62 62 69 74 83 85
44 45 42 41 40 38 38 38 38 37 36 35 36 36 36 36 36 37 39 41 44 45 46 47 48 50 53 56 59 63 65 64 62 58 55 60 64 62 62 68 72 79 84
Wind_Direction_850mb
236 236 234 230 224 222 222 232 237 237 234 232 235 237 232 227 231 237 249 260 267 269 271 274 277 276 276 278 277 281 280 280 282 284 288 289 293 293 292 291 291 291 289
240 237 230 225 220 216 215 223 222 221 220 214 206 206 213 221 230 240 249 256 264 270 274 275 280 283 288 293 299 303 305 304 302 303 303 305 307 309 311 309 304 300 299
237 232 227 221 216 215 214 209 203 199 197 201 207 214 221 231 244 254 262 266 270 275 283 289 294 300 303 303 306 308 308 308 306 305 307 310 309 312 308 306 306 304 303
232 227 223 217 211 205 201 197 196 199 205 211 218 223 228 233 239 245 253 261 272 283 293 294 294 300 302 306 308 306 305 305 306 306 306 307 310 311 311 310 304 304 301
226 222 217 211 206 203 202 202 205 208 213 221 228 227 229 237 244 255 267 273 275 280 284 291 299 303 307 314 316 315 317 316 317 316 314 314 316 316 318 317 312 309 307
225 221 215 210 207 206 207 208 212 216 219 220 224 227 237 241 247 259 266 269 277 284 292 304 310 313 316 320 320 323 324 327 325 322 319 320 319 317 317 317 316 315 317
223 219 216 213 213 212 211 213 213 211 213 216 226 238 243 254 277 278 280 288 296 301 307 310 311 316 321 323 322 323 324 326 326 325 322 323 320 322 319 317 314 310 305
221 219 216 214 212 211 210 209 207 204 204 210 221 234 253 272 276 275 281 289 296 307 316 319 320 324 324 325 325 325 325 329 328 325 320 319 318 321 317 314 311 308 305
221 219 216 214 212 210 208 206 205 206 212 222 234 236 237 253 257 266 279 291 298 310 318 320 321 322 322 320 321 322 326 325 322 323 325 323 324 323 322 314 312 311 311
218 217 215 214 213 211 209 208 209 214 218 215 218 222 237 249 265 275 278 286 296 305 309 310 315 319 320 320 322 324 323 323 322 323 325 326 324 321 319 314 311 304 305
215 213 212 211 210 209 208 209 210 208 209 215 224 231 233 243 254 265 278 284 294 306 310 311 314 315 317 323 326 327 325 323 327 326 325 326 326 323 319 315 310 307 307
212 212 211 208 207 206 206 208 209 209 206 220 229 229 232 238 252 270 281 292 302 307 314 315 319 321 324 328 329 326 326 327 325 324 325 328 329 328 325 321 314 309 304
208 207 206 204 204 204 204 201 206 208 220 232 235 232 236 239 250 259 274 294 305 312 317 321 320 325 326 327 326 326 327 327 329 329 328 328 326 323 321 322 320 319 317
206 205 203 202 201 200 200 208 221 221 223 221 224 224 226 234 247 264 291 306 307 308 318 320 320 324 324 322 323 328 333 335 332 329 326 325 324 323 323 326 324 324 321
203 202 199 197 197 209 215 211 215 220 223 221 219 222 231 242 257 277 295 299 302 308 316 314 315 318 321 324 329 332 334 334 333 332 328 323 320 318 321 326 327 326 323
200 197 195 208 214 211 204 209 216 217 217 218 221 226 235 248 262 279 289 293 298 302 308 313 320 321 323 325 327 329 331 332 332 330 329 327 322 319 319 323 325 325 323
197 201 210 209 207 207 208 209 212 212 217 221 225 234 247 260 270 277 281 286 299 304 307 314 317 319 320 321 324 325 327 329 329 329 330 330 327 323 321 321 324 323 323
205 210 211 209 207 208 208 209 211 213 219 226 232 238 251 261 269 279 283 289 289 298 302 305 308 310 313 318 320 320 322 326 328 327 328 327 326 325 324 322 322 322 324
207 205 206 207 207 207 210 210 211 214 219 228 239 248 257 266 271 275 279 285 289 292 295 302 308 311 314 316 316 318 320 323 322 322 322 322 324 324 324 323 320 321 322
206 209 208 206 206 207 209 212 213 215 220 228 239 251 258 262 265 270 276 280 286 293 299 304 307 309 312 314 316 316 315 316 316 316 318 319 321 321 323 324 322 320 321
204 206 213 216 213 212 212 215 218 222 230 238 244 256 265 269 269 270 274 284 292 297 301 302 307 311 313 314 313 311 311 312 314 313 313 316 318 319 323 323 323 322 322
217 219 217 215 216 216 218 223 227 231 235 239 244 254 263 272 279 283 287 290 291 294 297 300 305 310 312 312 311 310 310 311 312 310 309 311 313 316 320 320 321 323 326
217 216 215 216 218 221 225 229 236 241 245 250 252 253 259 267 275 282 286 288 289 292 295 299 303 308 310 311 311 311 311 312 310 308 308 307 310 314 317 318 320 324 328
217 216 217 219 223 228 232 237 242 247 251 253 256 260 265 271 277 282 286 288 291 294 296 298 302 307 310 311 312 313 311 309 307 306 304 303 307 310 311 315 321 326 326
218 220 221 224 229 234 239 244 247 250 253 257 262 268 273 277 280 283 287 291 293 295 298 301 304 307 309 311 314 313 312 309 306 305 301 298 299 303 309 317 322 323 324
221 224 226 229 234 239 244 247 250 252 257 262 267 273 277 280 283 287 289 292 294 296 299 301 304 309 311 313 314 313 313 308 303 301 294 295 300 305 310 315 317 321 323